Regional Weather Roundup
Issued by NWS Sterling, VA

Home | Current Version | Previous Version | Graphics & Text | Print | Product List | Glossary On
Versions: 1 2 3 4 5 6 7 8 9 10 11 12 13 14 15 16 17 18 19 20 21 22 23 24 25 26 27 28 29 30 31 32 33 34 35 36 37 38 39 40 41 42 43 44 45 46 47 48 49 50
000
ASUS41 KLWX 251410
RWRLWX

REGIONAL WEATHER ROUNDUP
NATIONAL WEATHER SERVICE BALTIMORE MD/WASHINGTON DC
1000 AM EDT WED MAY 25 2016

Note: "FAIR" indicates few or no clouds below 12,000 feet
with no significant weather and/or obstructions to visibility.
 TC=TEMPERATURE CELSIUS

 * =Non NWS site. Station does not report precipitation (e.g. rain,
    snow, etc.), thunder, or fog.

DCZ001-MDZ009-015-VAZ040>042-051-053>054-251500-
WASHINGTON METRO

CITY           SKY/WX    TMP DP  RH WIND       PRES   REMARKS
WASHINGTON NAT PTSUNNY   74  57  55 CALM      30.16F
DULLES         FAIR      77  56  48 VRB3      30.17F
ANDREWS AFB    SUNNY     77  54  44 NW8       30.15F
FT BELVOIR     FAIR      78  59  51 CALM      30.16F
QUANTICO       FAIR      68  59  73 S6        30.17F
COLLEGE PARK*  FAIR      77  54  44 W6        30.15S
LEESBURG*      FAIR      79  59  50 W8        30.18S
MANASSAS*      SUNNY     73  61  64 CALM      30.17F

$$

MDZ006>007-011-014-251500-
BALTIMORE METRO

CITY           SKY/WX    TMP DP  RH WIND       PRES   REMARKS
BWI AIRPORT    PTSUNNY   79  55  43 W8        30.14S
MD SCIENCE CTR   N/A     80  52  37 MISG      30.16F
MARTIN STATE   SUNNY     82  57  42 W8        30.15S
ANNAPOLIS      SUNNY     73  58  59 N5        30.14S
FORT MEADE*    SUNNY     77  55  47 NW6       30.17F

$$

MDZ012-015-019>023-251500-
MARYLAND EASTERN SHORE

CITY           SKY/WX    TMP DP  RH WIND       PRES   REMARKS
OCEAN CITY     MOSUNNY   78  58  49 NW6       30.14S
SALISBURY      SUNNY     78  56  46 W5        30.14F
BAY BRIDGE AP* SUNNY     75  55  50 W6        30.15S
EASTON*        MOSUNNY   77  63  61 NW6       30.18S

$$

MDZ017>025-251500-
SOUTHERN MARYLAND

CITY           SKY/WX    TMP DP  RH WIND       PRES   REMARKS
PATUXENT RIVER PTSUNNY   77  56  48 NW9       30.16S
ST INIGOES     SUNNY     73  60  63 VRB6      30.15F
LEONARDTOWN*   SUNNY     77  57  50 W7        30.17F

$$

MDZ003>005-251500-
NORTH CENTRAL MARYLAND

CITY           SKY/WX    TMP DP  RH WIND       PRES   REMARKS
FREDERICK*     SUNNY     75  61  60 SW7       30.19S
HAGERSTOWN APT SUNNY     71  54  54 S9        30.17S
WESTMINSTER*   SUNNY     73  70  88 SW5       30.17S

$$

MDZ501>502-251500-
WESTERN MARYLAND

CITY           SKY/WX    TMP DP  RH WIND       PRES   REMARKS
OAKLAND*       NOT AVBL
CUMBERLAND*    SUNNY     64  55  72 CALM      30.23F

$$

VAZ025>031-251500-
SHENANDOAH VALLEY

CITY           SKY/WX    TMP DP  RH WIND       PRES   REMARKS
WINCHESTER*    FAIR      75  55  50 SW7       30.19S
FRONT ROYAL*   FAIR      70  54  56 SW8       30.19S
LURAY*         FAIR      70  55  60 S6        30.21S
NEW MARKET*    FAIR      71  57  62 SW5       30.20F
STAUNTON*      FAIR      69  55  60 CALM      30.24F
WAYNESBORO*    FAIR      70  55  59 CALM      30.24S

$$

WVZ021-048>050-054>055-251500-
EASTERN WEST VIRGINIA PANHANDLE

CITY           SKY/WX    TMP DP  RH WIND       PRES   REMARKS
MARTINSBURG    FAIR      72  58  61 SE5       30.17S
PETERSBURG*    FAIR      69  57  66 CALM      30.21F

$$

VAZ036>039-050-251500-
CENTRAL FOOTHILLS

CITY           SKY/WX    TMP DP  RH WIND       PRES   REMARKS
CHARLOTTESVILL FAIR      75  57  53 VRB3      30.19F
CULPEPER*      FAIR      78  61  55 W3        30.18F
ORANGE*        FAIR      77  55  47 SW5       30.20F
GORDONSVILLE*  FAIR      78  56  47 CALM      30.18S
WARRENTON*     FAIR      77  53  43 W3        30.17F

$$

VAZ055>057-251500-
NORTH AND CENTRAL PIEDMONT

CITY           SKY/WX    TMP DP  RH WIND       PRES   REMARKS
FREDERICKSBRG* FAIR      79  57  47 NW5       30.16F
STAFFORD*      FAIR      77  55  46 NW6       30.21F

$$

NCZ024-NYZ072-PAZ021-071-VAZ022-071-251500-
OTHER REGIONAL OBSERVATIONS

CITY           SKY/WX    TMP DP  RH WIND       PRES   REMARKS
NEW YORK CITY  SUNNY     73  48  41 NW6       30.10S
PHILADELPHIA   MOSUNNY   79  46  31 NW6       30.12S
PITTSBURGH     CLOUDY    74  51  44 W7        30.16S
ROANOKE        FAIR      71  55  56 CALM      30.26S
RICHMOND       PTSUNNY   79  57  46 NW3       30.18F
RALEIGH        MOSUNNY   76  61  59 VRB3      30.23S

$$

ANZ530>537-251500-
MARINE OBSERVATIONS

STATION/POSITION TIME  TEMP    WIND        PRES
                       AIR SEA DIR/SP/G
                 (UTC) (F)     (DEG/KT/KT) (MB)
THOMAS PT LIGHT  1400   74 62  290/  5/  6 1022.1S
BALT KEY BRIDGE  1300   72     250/  6/  6 1020.5R
COVE POINT       1300   71     360/  2/  4 1021.7R
LEWISETTA        1300   71 66  260/  4/  5 1021.1R
SOLOMONS ISLAND  1300   72 63  320/  5/  7   N/A
PINEY POINT      1300          350/  5/  6   N/A

$$




USA.gov is the U.S. government's official web portal to all federal, state and local government web resources and services.